Theta_e
350 352 352 352 351 352 349 349 347 345 345 345 347 346 345 341 343 343 339 341 344 342 344 341 337 337 334 333 332 331 328 332
344 349 350 353 351 351 350 349 347 345 349 345 345 345 344 345 345 347 341 344 344 342 345 343 343 342 338 340 340 341 342 340
332 340 356 349 351 352 349 350 349 346 349 349 345 346 345 347 347 348 347 346 346 344 343 342 346 343 341 342 341 342 344 340
331 333 345 350 345 345 343 337 350 349 351 350 346 347 347 347 349 350 351 350 351 349 348 349 348 348 346 344 344 344 344 344
330 332 336 352 345 343 336 340 338 352 351 353 348 349 349 348 350 351 348 351 351 349 351 347 346 345 345 345 347 348 347 346
324 327 335 346 345 340 339 344 342 340 351 353 350 352 349 350 350 353 351 350 350 351 350 350 350 350 350 351 351 350 351 346
322 325 331 333 347 345 345 332 332 332 350 347 352 351 350 339 347 346 349 352 351 350 349 351 350 349 351 348 348 349 350 349
322 327 331 334 335 350 346 341 342 350 341 333 338 347 338 339 342 336 337 347 342 336 344 345 347 347 346 346 349 348 346 345
321 329 332 341 342 343 350 353 353 348 347 349 352 352 354 353 347 334 337 345 347 341 334 331 345 347 348 344 343 339 335 333
323 330 335 340 343 349 347 353 352 353 350 350 350 348 351 350 351 354 351 346 346 349 348 347 342 336 334 330 333 335 332 331
324 335 335 334 341 345 347 352 352 350 349 349 348 350 348 348 352 352 352 350 349 340 342 339 330 330 328 326 331 333 334 329
324 333 337 335 341 335 333 339 347 350 346 349 337 349 346 344 340 338 335 333 331 330 331 329 330 330 329 327 327 328 330 328
325 326 335 335 339 339 334 335 337 348 346 352 348 347 340 332 332 330 331 330 331 330 330 331 332 332 331 333 332 332 333 336
327 334 335 334 334 335 339 343 343 343 343 348 341 335 335 333 335 331 328 331 329 328 329 330 330 330 330 329 331 331 333 334
331 334 334 336 336 344 344 339 339 336 335 333 332 331 330 328 327 327 326 325 324 325 324 324 326 326 326 327 326 326 326 329
332 333 334 338 340 339 337 334 332 328 327 327 325 325 323 324 323 324 323 322 322 322 321 321 322 323 323 323 323 323 323 323
335 334 336 337 335 333 332 329 328 327 326 324 323 323 323 323 323 322 322 321 321 321 320 319 319 319 320 321 321 321 322 323
334 333 333 332 330 329 327 326 325 324 323 322 322 321 321 321 321 321 321 320 320 320 320 319 319 320 320 320 320 320 320 320
333 331 330 327 326 325 324 323 322 321 320 320 320 320 319 319 319 319 319 319 319 319 319 319 319 319 319 319 319 318 318 318
330 329 326 325 324 323 322 320 320 319 318 318 318 318 318 318 318 318 318 318 318 318 318 318 318 318 317 317 316 317 317 316
Wind_Speed
27 41 28 20 28 30 32 33 30 30 29 26 23 21 20 20 18 18 20 18 22 18 21 18 17 16 15 13 13 15 14 10
13 15 17 9 5 29 38 40 36 33 34 30 27 25 23 22 22 21 19 20 20 19 19 20 17 16 16 16 18 16 13 11
15 16 9 8 12 6 20 6 34 32 32 28 29 29 29 25 26 25 20 19 20 19 19 20 23 18 19 16 18 15 16 16
15 17 4 7 6 11 16 34 21 17 8 23 26 24 27 26 28 29 25 23 21 20 16 12 10 10 13 19 19 16 19 19
12 16 6 14 14 16 18 45 35 7 14 5 17 16 22 22 21 30 25 23 15 17 16 16 14 14 14 13 11 10 14 15
18 24 15 13 18 27 27 17 29 27 14 16 14 9 16 12 7 12 23 18 15 16 13 11 10 9 7 5 5 10 17 10
23 26 17 13 16 23 29 36 44 21 13 12 16 11 9 3 12 5 3 13 19 7 11 11 11 7 11 6 6 10 14 18
21 24 21 24 15 33 30 28 28 26 21 9 6 18 14 9 10 16 17 30 13 10 18 14 13 10 3 4 5 3 10 15
25 20 24 28 23 20 22 27 27 26 22 19 17 17 15 13 13 16 5 19 11 26 19 11 18 3 2 4 1 3 10 15
17 22 23 26 23 19 19 19 21 19 15 11 4 13 11 11 13 15 17 16 13 8 5 3 6 2 3 3 4 7 9 11
15 16 23 18 24 24 20 16 15 12 12 12 7 1 9 2 5 10 7 4 8 10 8 5 1 1 2 4 6 7 8 12
15 15 19 23 27 26 19 20 20 13 13 10 10 8 9 7 7 9 11 9 6 4 3 3 2 4 5 6 10 11 11 15
18 19 23 24 21 21 15 9 9 11 9 9 12 12 9 11 10 12 7 4 5 3 3 3 2 5 6 9 12 13 16 16
12 16 23 19 13 12 4 12 11 11 11 9 10 14 12 12 12 8 5 6 6 2 1 1 3 7 12 14 15 17 20 22
9 19 13 15 10 14 12 16 16 15 17 13 13 17 15 11 8 9 8 9 7 8 7 6 9 11 13 17 20 22 23 24
10 10 13 20 17 12 11 11 14 15 16 13 12 13 9 9 6 3 3 5 8 9 13 14 14 14 15 16 18 20 22 25
15 11 14 22 19 17 16 14 12 14 14 11 9 9 5 5 4 5 6 7 9 9 14 18 19 20 20 19 20 23 24 23
16 11 16 20 16 16 17 13 11 11 10 8 7 6 4 2 4 6 8 11 13 13 14 16 17 19 20 20 22 22 22 22
17 16 19 18 17 13 12 10 10 8 7 6 4 2 3 5 6 9 11 13 15 16 17 18 19 20 21 22 23 23 24 25
16 16 17 18 17 15 10 7 5 6 4 3 3 4 5 7 9 11 13 15 16 17 17 19 19 21 22 23 24 25 25 25
Wind_Direction
173 199 204 194 178 176 173 168 178 182 169 175 171 180 182 184 188 200 183 193 199 192 201 206 212 222 230 231 235 243 248 243
230 248 227 24 277 177 170 167 178 186 166 166 172 178 184 186 190 197 191 202 196 190 198 205 208 207 222 220 237 239 226 227
284 289 37 70 55 152 39 249 177 188 163 167 177 181 181 188 189 192 196 201 199 200 205 208 205 199 216 204 219 232 220 229
250 278 234 110 164 229 268 297 272 180 198 169 183 184 180 193 187 191 198 203 200 195 207 219 235 228 220 210 214 221 232 239
248 273 355 152 184 198 210 214 35 313 253 255 204 198 179 189 201 192 193 206 214 201 199 202 216 225 239 253 265 281 282 276
258 264 115 147 175 176 186 199 194 192 227 252 206 228 197 204 193 158 187 204 218 216 219 218 219 211 184 189 224 250 276 298
238 255 128 106 176 170 167 162 168 215 240 260 239 228 228 292 252 193 235 202 205 242 230 243 228 215 215 217 258 265 296 313
235 238 137 127 129 167 158 177 188 181 195 163 286 226 235 226 276 237 226 262 241 292 278 322 311 290 189 299 225 284 294 297
234 204 150 134 144 145 147 145 160 166 167 180 186 206 228 211 197 161 191 282 151 184 223 190 214 238 33 154 209 326 321 317
231 186 151 139 142 139 140 137 149 150 158 165 185 225 223 214 184 171 177 176 181 197 180 167 123 157 38 21 285 276 275 295
227 169 160 183 134 129 127 139 144 155 140 121 101 83 333 334 145 149 138 142 160 140 138 185 85 298 312 309 313 250 258 270
214 185 166 161 148 157 142 147 155 158 149 148 156 177 217 158 152 140 129 146 127 94 162 197 206 217 241 288 302 301 290 280
193 212 154 166 162 182 193 154 149 154 152 147 166 185 158 155 146 137 117 150 155 183 170 207 266 294 289 287 291 290 285 285
189 146 149 161 161 174 160 158 110 119 109 134 131 99 119 116 108 128 163 218 200 162 90 278 297 293 298 297 293 291 287 281
108 120 126 123 146 115 101 106 105 97 100 106 103 109 92 85 75 51 25 14 8 11 332 309 292 289 284 283 285 281 284 284
108 108 129 130 113 115 115 105 108 100 94 85 84 77 85 75 73 58 40 322 314 312 316 304 302 297 295 295 289 286 285 281
111 115 118 122 133 137 137 124 114 104 96 88 73 71 62 41 11 347 338 314 298 296 286 291 294 297 293 291 291 287 283 285
121 126 109 110 117 114 112 120 111 113 106 97 90 55 37 358 330 307 295 293 288 292 296 298 301 296 291 289 283 282 284 286
123 111 109 113 111 109 112 129 141 116 97 82 70 26 342 315 296 292 288 291 299 298 295 293 292 293 288 285 284 285 281 279
126 123 136 139 140 138 110 87 110 109 91 66 11 329 305 299 299 295 298 293 292 293 296 292 295 293 292 288 286 279 279 280